スペースウォッチ-リニア彗星

P/2004 DO29 ( Spacewatch-LINEAR )

English version
Home page
Updated on July 18, 2005

---------------------------------------------------------------------

・ プロフィール

発見日 2004年2月17日
発見光度 19.8等、19.4等
発見者 A. E. Gleason (Steward Observatory, Kitt Peak), Lincoln Laboratory Near-Earth Asteroid Research project

・ 軌道要素

Epoch 2004 Oct. 2.0 TT = JDT 2453280.5
T 2004 Oct.  9.36420 TT                                 MPC
q   4.0968758            (2000.0)            P               Q
n   0.04853735     Peri.   41.59825     -0.97537340     +0.17559513
a   7.4430684      Node   147.77712     -0.19915778     -0.96120647
e   0.4495717      Incl.   14.49551     +0.09477824     -0.21271690
P  20.31

・ 星図

・ 光度変化

        m1 = 10.0 + 5 logΔ + 10.0 log r

---------------------------------------------------------------------

軌道要素はM.P.E.C. 2005-N45に掲載されたものです。
星図は StellaNavigator Ver.2.0 for Windows (アストロアーツ 編著 / アスキー出版局刊) で作成したものです。
光度グラフはComet for Windowsで作成したものです。

---------------------------------------------------------------------

Copyright(C) Seiichi Yoshida (comet@aerith.net). All rights reserved.